Location: Wilsall
(45.9940°N, 110.6590°W)
Time: 17:01:28
(UTC-06:00)

Daily predictions for brighter satellites

Satellite Brightness Start Highest point End
(mag) Time Altitude Azimuth Time Altitude Azimuth Time Altitude Azimuth
Cosmos 494 Rocket 4.3 20:39:34 10° NNW 20:44:46 75° WSW 20:49:58 10° SSE
Sich 1 3.2 20:44:11 10° N 20:48:24 54° ENE 20:52:35 10° SSE
Cosmos 1340 2.9 20:47:16 10° S 20:50:56 49° E 20:54:38 10° NNE
In-Cosmos 22 Rocket 4.2 20:48:05 10° NNW 20:53:39 87° W 20:59:01 10° S
Cosmos 1151 Rocket 4.4 20:51:31 10° SE 20:54:29 19° E 20:57:29 10° NE
Cosmos 1809 Rocket 4.5 20:50:06 10° S 20:56:10 64° E 21:02:18 10° NNE
Cosmos 2251 Rocket 3.6 20:51:04 10° NNW 20:56:30 80° ENE 21:01:51 10° SSE
Nadezhda 3 Rocket 4.1 20:51:05 10° N 20:57:21 67° E 21:03:39 10° SSE
Cosmos 1939 Rocket 2.8 20:54:13 10° SSE 20:58:04 68° ENE 21:01:58 10° N
SJ-6B 3.7 20:54:47 10° S 20:58:45 54° W 21:02:40 10° NNW
Cosmos 1825 3.8 20:58:10 10° NNE 21:00:54 19° ENE 21:03:17 11° ESE
Cosmos 2237 4.3 20:56:34 10° SSW 21:02:15 85° WNW 21:08:00 10° NNE
NOSS 7 (H) 4.3 21:00:35 10° SW 21:04:04 81° SE 21:07:23 10° NE
Cosmos 2322 4.0 20:59:46 10° SSW 21:05:26 77° WNW 21:11:09 10° NNE
Envisat 3.7 21:01:48 10° S 21:06:47 57° W 21:11:48 10° NNW
Cosmos 44 3.7 21:02:50 10° SW 21:07:18 63° NW 21:12:05 10° NNE
Cosmos 1633 Rocket 3.0 21:03:00 10° N 21:07:20 66° E 21:11:39 10° SSE
Meteor 2-3 Rocket 3.8 21:04:53 10° N 21:10:26 60° ENE 21:15:59 10° SSE
Cosmos 1437 4.2 21:08:28 10° SSW 21:11:31 41° WNW 21:14:35 10° N
Cosmos 2228 Rocket 3.8 21:10:26 10° SSE 21:14:18 31° E 21:18:12 10° NNE
SL-16 R/B 4.0 21:15:04 11° E 21:15:04 11° E 21:16:08 10° E
Meteor 2-14 Rocket 4.4 21:09:30 10° S 21:15:32 68° E 21:21:37 10° NNE
SL-24 R/B - RUBIN 2 4.1 21:14:46 10° NW 21:19:03 54° WSW 21:23:18 10° SSE
Cosmos 1515 Rocket 4.2 21:15:22 10° SSE 21:19:25 36° E 21:23:31 10° NNE
Thor Agena Rocket 3.9 21:19:05 10° NNE 21:24:18 74° WNW 21:29:33 10° SSW
Meteor 2-16 Rocket 4.4 21:18:24 10° S 21:24:27 66° E 21:30:31 10° NNE
Cosmos 44 Rocket 3.8 21:21:39 10° SW 21:26:23 64° NW 21:31:18 10° NNE
OE (NEXTSAT) 4.5 21:25:02 10° WSW 21:28:31 55° SSE 21:31:02 17° E
ARGOS 3.6 21:26:04 16° SE 21:30:02 43° ENE 21:35:04 10° N
USA 234 4.4 21:29:12 10° ENE 21:35:04 37° N 21:40:56 10° NW
Cosmos 2154 Rocket 4.3 21:29:03 10° SSW 21:35:17 73° W 21:41:33 10° N
Resurs 01 Rocket 2.3 21:31:54 10° S 21:36:15 54° W 21:40:38 10° NNW
BREEZE-M DEB (TANK) 2.5 21:34:58 10° W 21:37:39 51° NNW 21:39:15 16° ENE
Cosmos 1328 Rocket 3.5 21:36:05 10° S 21:40:29 86° E 21:44:58 10° N
Cosmos 1980 3.9 21:36:09 10° S 21:41:34 47° ESE 21:47:00 10° NE
Cosmos 2360 Rocket 4.1 21:36:51 10° WSW 21:41:54 33° NW 21:46:59 10° NNE
Meteor 1-27 4.2 21:36:25 10° S 21:42:10 87° E 21:47:53 10° NNE
Cosmos 1727 Rocket 4.4 21:40:13 10° N 21:46:07 44° ENE 21:49:42 22° SE
Cosmos 2333 Rocket 2.1 21:42:15 10° SSW 21:47:55 82° ESE 21:53:36 10° NNE
Cosmos 1470 Rocket 3.5 21:44:07 10° N 21:48:32 87° W 21:52:02 16° S
Cosmos 1455 2.6 21:45:54 10° SSW 21:49:41 64° W 21:53:33 10° N
Spot 2 Rocket 4.1 21:44:50 10° S 21:49:50 57° WSW 21:54:53 10° NNW
Cosmos 2369 Rocket 4.4 21:49:11 10° NNE 21:51:25 12° NE 21:53:39 10° ENE
Cosmos 1892 4.4 21:49:24 10° NNW 21:52:54 32° W 21:56:24 10° SSW
COSMOS 2428 3.4 21:47:37 10° SW 21:53:16 58° WNW 21:58:57 10° NNE
Cosmos 2341 Rocket 4.2 21:49:19 10° SSW 21:55:41 75° W 22:02:02 10° N
Meteor 2-10 Rocket 4.1 21:52:18 21° SSE 21:55:44 43° E 22:01:11 10° NNE
NOSS 2-1 (C) 4.2 21:52:22 10° WSW 21:55:56 48° NW 22:00:02 10° NNE
NOSS 2-1 (D) 4.3 21:53:22 10° WSW 21:56:55 47° NW 22:01:01 10° NNE
Aureole 2 3.9 21:54:57 11° SSW 21:57:47 86° ESE 22:00:44 10° NNE
Cosmos 1408 2.5 21:54:12 10° N 21:57:52 87° W 21:59:41 28° S
Cosmos 1844 Rocket 4.2 21:53:17 10° NW 21:58:15 32° WSW 22:03:12 10° SSW
ATLAS 2AS CENTAUR R/B 3.2 21:52:34 10° NW 22:00:27 69° WSW 22:05:44 20° SSE
Terra 3.4 22:00:47 18° E 22:01:56 19° ENE 22:05:15 10° NNE
Cosmos 2218 Rocket 4.0 21:57:10 10° S 22:03:28 73° E 22:09:52 10° NNE
ATLAS CENTAUR R/B 1.0 22:02:51 10° SW 22:06:32 87° SE 22:10:25 10° NE
Lacrosse 5 3.8 22:04:38 10° NW 22:08:47 24° N 22:12:56 10° ENE
Genesis I 3.9 22:05:20 10° NW 22:09:18 49° WSW 22:10:55 30° S
Cosmos 2237 Rocket 2.1 22:03:50 10° SSW 22:09:25 72° ESE 22:15:03 10° NNE
Cosmos 2219 Rocket 2.8 22:04:48 10° SW 22:10:23 60° WNW 22:16:00 10° NNE
SPOT 5 3.3 22:10:05 34° ESE 22:11:17 41° ENE 22:15:29 10° N
CZ-3B R/B 4.3 22:10:03 10° WNW 22:10:37 18° W 22:10:37 18° W
USA 81 4.2 22:06:24 10° N 22:11:36 56° E 22:13:39 35° SE
SPOT 1/Viking Rocket 4.1 22:11:59 33° ESE 22:13:44 44° ENE 22:18:41 10° N
Cosmos 405 Rocket 4.0 22:16:09 27° ENE 22:16:09 27° ENE 22:18:44 10° NNE
Cosmos 2278 Rocket 2.4 22:10:25 10° NNW 22:16:04 67° WSW 22:19:15 26° S
Cosmos 1933 Rocket 4.2 22:13:01 10° NNW 22:17:18 52° W 22:20:07 20° SSW
Cosmos 2366 rocket 3.9 22:11:54 12° S 22:17:41 83° E 22:24:00 10° N
MetOp-A 4.2 22:14:51 25° S 22:18:07 77° WSW 22:23:30 10° NNW
NOSS 0 Rocket 4.0 22:15:26 10° SSW 22:21:36 81° WNW 22:27:52 10° NNE
H-2A R/B 1.9 22:19:45 33° SSE 22:22:05 90° WNW 22:27:06 10° NNW
Cosmos 407 Rocket 3.4 22:21:34 10° NNW 22:26:43 73° ENE 22:28:14 45° SE
ATLAS 5 CENTAUR R/B 4.1 22:22:52 10° NNW 22:27:08 21° NNE 22:31:12 12° ENE
SL-8 Rocket 4.4 22:21:44 10° SSW 22:28:00 65° W 22:34:16 10° N
NOSS 3-4 (A) 3.8 22:23:50 10° NW 22:30:49 75° NE 22:34:11 36° SE
NOSS 3-4 (C) 3.8 22:23:56 10° NW 22:30:55 75° NE 22:34:16 36° SE
Cosmos 1151 Rocket 4.2 22:27:42 10° SSW 22:31:44 40° WNW 22:35:48 10° N
ERS-1 Rocket 3.0 22:30:18 37° S 22:32:18 80° WSW 22:37:22 10° NNW
Cosmos 1707 Rocket 4.0 22:34:09 43° ENE 22:34:09 43° ENE 22:37:51 10° NNE
Cosmos 1371 Rocket 3.9 22:30:20 16° SSW 22:34:39 87° ESE 22:40:03 10° NNE
Cosmos 614 Rocket 4.4 22:30:38 10° NNW 22:35:43 48° ENE 22:36:43 42° E
Cosmos 1825 3.7 22:33:08 10° NNW 22:36:35 33° W 22:38:09 23° SW
Cosmos 1869 Rocket 3.4 22:34:57 10° N 22:39:22 85° E 22:39:55 67° SSE
USA 267 3.2 22:36:08 10° ENE 22:42:32 55° SE 22:48:55 10° SSW
Cosmos 676 Rocket 4.0 22:39:13 10° NNW 22:44:28 66° ENE 22:45:23 55° ESE
Cosmos 1869 4.5 22:45:43 23° SW 22:47:49 41° WNW 22:51:40 10° N
Helios 1B rocket 2.7 22:47:16 10° NNE 22:50:44 56° NE 22:50:44 56° NE
CARTOSAT-1 3.9 22:51:58 52° ENE 22:51:58 52° ENE 22:55:58 10° N
Cosmos 1733 Rocket 4.1 22:48:33 10° N 22:52:02 34° NE 22:52:02 34° NE
Cosmos 405 3.9 22:49:28 10° NNW 22:52:42 44° W 22:52:42 44° W
Cosmos 2098 Rocket 4.1 22:52:10 20° SW 22:55:02 42° W 22:58:46 10° N
Cosmos 2056 Rocket 3.6 22:53:18 26° SSW 22:56:24 79° WNW 23:01:51 10° NNE
SL-19 R/B 4.2 22:55:49 55° SSE 22:57:09 90° W 23:02:47 10° NNW
Cosmos 1452 Rocket 4.1 22:58:31 40° ENE 22:58:31 40° ENE 23:02:30 10° NNE
SL-16 R/B 2.0 22:56:50 53° S 22:58:07 73° ESE 23:03:47 10° NNE
SL-8 R/B 4.1 22:54:09 10° WSW 22:57:47 50° SW 22:57:47 50° SW
Helios 1A 3.6 23:02:58 46° WSW 23:03:20 47° W 23:07:25 10° NNW
Cosmos 1023 Rocket 4.3 22:59:47 10° NNW 23:04:59 83° ENE 23:05:20 76° SE
GEOS 3 Rocket 3.9 23:04:08 10° NE 23:09:29 70° NW 23:14:44 10° SW
Cosmos 1943 Rocket 3.5 23:08:04 10° N 23:12:41 26° NE 23:13:38 25° ENE
Cosmos 1850 Rocket 4.4 23:09:38 10° NNW 23:14:39 48° ENE 23:14:39 48° ENE
Cosmos 1934 Rocket 3.9 23:16:27 60° ESE 23:16:43 61° E 23:22:42 10° NNE
USA 234 3.4 23:15:12 42° E 23:17:28 66° NNE 23:23:57 10° NW
CZ-2C R/B 3.2 23:20:42 54° NE 23:20:42 54° NE 23:24:56 10° N
Cosmos 1741 Rocket 4.3 23:16:01 10° NNW 23:21:14 53° ENE 23:21:14 53° ENE
Landsat 7 4.1 23:21:25 59° WSW 23:21:32 59° WSW 23:26:16 10° NNW
Cosmos 2344 3.5 23:20:44 42° S 23:23:26 67° ESE 23:31:48 10° NE
RESURS DK-1 4.2 23:22:19 10° N 23:25:06 23° NE 23:25:06 23° NE
Cosmos 2297 4.3 23:20:42 10° NW 23:26:06 47° WSW 23:26:51 44° SW
Cosmos 1140 Rocket 3.5 23:21:16 10° NNW 23:26:26 67° WSW 23:26:27 67° WSW
Cosmos 1954 Rocket 4.2 23:24:48 10° NNW 23:29:58 61° WSW 23:29:59 61° WSW
IGS 5A 4.4 23:34:24 46° WNW 23:34:24 46° WNW 23:37:40 10° NNW
SeaSat 1 4.1 23:35:23 23° NE 23:35:55 23° NE 23:39:45 10° N
Meteor 1-25 Rocket 4.2 23:30:48 10° N 23:36:33 77° ENE 23:36:33 77° ENE
Cosmos 2369 Rocket 2.6 23:31:21 10° NNW 23:36:55 50° ENE 23:37:01 50° ENE
Spot 4 4.4 23:39:29 49° NNE 23:39:29 49° NNE 23:43:19 10° N
Cosmos 1821 Rocket 4.2 23:37:41 52° SW 23:39:13 69° W 23:45:31 10° N
Terra 2.3 23:39:40 56° WNW 23:39:40 56° WNW 23:43:58 10° NNW
Meteor 1-26 Rocket 4.1 23:40:40 82° NNE 23:40:40 82° NNE 23:46:00 10° N
Nimbus 7 Rocket 4.2 23:35:00 10° NNE 23:40:56 89° WNW 23:41:16 81° SSW
Cosmos 1437 Rocket 4.3 23:39:10 10° NNW 23:41:29 34° NNW 23:41:29 34° NNW
ATLAS CENTAUR R/B 4.3 23:43:50 10° WNW 23:46:07 15° NNW 23:48:28 10° N
H-2A R/B 4.1 23:49:20 22° NE 23:49:20 22° NE 23:51:56 10° NNE
Lacrosse 5 2.6 23:47:49 10° NW 23:52:35 48° NNE 23:52:35 48° NNE
Cosmos 2123 Rocket 4.0 23:46:46 10° NNW 23:53:05 74° W 23:53:32 70° SW
Cosmos 2237 Rocket 4.4 23:49:42 10° W 23:54:04 23° NW 23:58:28 10° N
